Toledo Metcalf, OH

10:10 AM EDT on August 22, 2017 (GMT -0400)
Metcalf

Weather History for KTDZ - October, 2013

Change the Weather History Date:

Sunday, October 20, 2013

  Actual Average (KTOL) Record (KTOL)
Temperature  
Mean Temperature 52 °F -  
Max Temperature 62 °F 58 °F 82 °F (1920)
Min Temperature 42 °F 37 °F 18 °F (1972)
Degree Days  
Heating Degree Days 14    
Growing Degree Days 2 (Base 50)    
Moisture  
Dew Point 38 °F    
Average Humidity 62    
Maximum Humidity 79    
Minimum Humidity 39    
Precipitation  
Precipitation 0.00 in - - ()
Sea Level Pressure  
Sea Level Pressure 29.92 in    
Wind  
Wind Speed 11 mph (SW)    
Max Wind Speed 18 mph    
Max Gust Speed 25 mph    
Visibility 10 miles    
Events      
Averages and records for this station are not official NWS values.
T = Trace of Precipitation, MM = Missing Value Source: NWS Daily Summary

Daily Weather History Graph

Daily Weather History Graph

Search for Another Location

Airport or City:

Trip Planner

Search our weather history database for the weather conditions in past years. The results will help you decide how hot, cold, wet, or windy it might be!

Date:

Astronomy

Oct. 20, 2013 Rise Set
Actual Time 7:51 AM EDT 6:44 PM EDT
Civil Twilight 7:23 AM EDT 7:12 PM EDT
Nautical Twilight 6:51 AM EDT 7:45 PM EDT
Astronomical Twilight 6:19 AM EDT 8:17 PM EDT
Moon 7:51 PM EDT (10/20) 9:29 AM EDT (10/20)
Length of Visible Light 11h 49m
Length of Day
10h 52m
Full, 97% of the Moon is Illuminated
Oct 20
Full
Oct 26
Last Quarter
Nov 3
New
Nov 10
First Quarter
Nov 17
Full

Hourly Weather History & Observations

Time (EDT) Temp. Windchill Dew Point Humidity Pressure Visibility Wind Dir Wind Speed Gust Speed Precip Events Conditions
12:53 AM 43.0 °F 37.2 °F 35.1 °F 74% 29.90 in 10.0 mi SW 10.4 mph - N/A   Mostly Cloudy
1:53 AM 44.1 °F 39.0 °F 36.0 °F 73% 29.91 in 10.0 mi SW 9.2 mph - N/A   Overcast
2:53 AM 43.0 °F 37.7 °F 35.1 °F 74% 29.90 in 10.0 mi SW 9.2 mph - N/A   Clear
3:53 AM 42.1 °F 37.1 °F 35.1 °F 76% 29.89 in 10.0 mi SW 8.1 mph - N/A   Clear
4:53 AM 42.1 °F 36.6 °F 35.1 °F 76% 29.89 in 10.0 mi SSW 9.2 mph - N/A   Scattered Clouds
5:53 AM 44.1 °F 39.0 °F 36.0 °F 73% 29.89 in 10.0 mi SW 9.2 mph - N/A   Overcast
6:53 AM 43.0 °F 37.7 °F 36.0 °F 76% 29.90 in 10.0 mi SW 9.2 mph - N/A   Partly Cloudy
7:53 AM 42.1 °F 37.1 °F 36.0 °F 79% 29.91 in 10.0 mi SSW 8.1 mph - N/A   Mostly Cloudy
8:53 AM 45.0 °F 40.1 °F 36.0 °F 71% 29.93 in 10.0 mi SW 9.2 mph - N/A   Mostly Cloudy
9:53 AM 46.9 °F - 37.0 °F 68% 29.95 in 10.0 mi SW 13.8 mph - N/A   Clear
10:53 AM 50.0 °F - 37.9 °F 63% 29.95 in 10.0 mi WSW 15.0 mph 20.7 mph N/A   Clear
11:53 AM 53.1 °F - 39.0 °F 59% 29.96 in 10.0 mi WSW 13.8 mph - N/A   Scattered Clouds
12:53 PM 55.0 °F - 39.9 °F 57% 29.95 in 10.0 mi SSW 16.1 mph - N/A   Clear
1:53 PM 57.9 °F - 37.0 °F 46% 29.93 in 10.0 mi SW 16.1 mph 23.0 mph N/A   Clear
2:53 PM 60.1 °F - 36.0 °F 41% 29.92 in 10.0 mi WSW 17.3 mph - N/A   Clear
3:53 PM 61.0 °F - 36.0 °F 39% 29.91 in 10.0 mi WSW 18.4 mph 25.3 mph N/A   Clear
4:53 PM 61.0 °F - 36.0 °F 39% 29.91 in 10.0 mi SW 11.5 mph - N/A   Mostly Cloudy
5:53 PM 60.1 °F - 37.9 °F 44% 29.91 in 10.0 mi SSW 10.4 mph - N/A   Overcast
6:53 PM 55.0 °F - 41.0 °F 59% 29.91 in 10.0 mi South 8.1 mph - N/A   Mostly Cloudy
7:53 PM 53.1 °F - 41.0 °F 64% 29.91 in 10.0 mi South 8.1 mph - N/A   Mostly Cloudy
8:53 PM 55.0 °F - 42.1 °F 62% 29.91 in 10.0 mi South 15.0 mph - N/A   Clear
9:53 PM 54.0 °F - 41.0 °F 62% 29.91 in 10.0 mi South 13.8 mph 20.7 mph N/A   Mostly Cloudy
10:53 PM 55.0 °F - 41.0 °F 59% 29.92 in 10.0 mi SSW 13.8 mph 19.6 mph N/A   Scattered Clouds
11:53 PM 54.0 °F - 41.0 °F 62% 29.91 in 10.0 mi SSW 15.0 mph 20.7 mph N/A   Partly Cloudy